This demonstration page uses our WeatherBlox Daily Observations layout. Learn more.

Left ArrowRight Arrow

39.92423, -83.80882

Hourly Observations for March 26, 2022

Temp ( °F °C ) Dew Point ( °F °C ) Humidity (%) Winds ( mph kmh ) Pressure ( in mb ) Visibility ( mi km ) Precip ( " mm )
12:56 am 00:56 Mostly Cloudy 38 3.3 32 0 79 79 W 20 31 29.72 1007 10 16 0.00 0.00
1:56 am 01:56 Mostly Cloudy 36 2.2 29 -1.7 76 76 W 15 24 29.71 1006 10 16 0.00 0.00
2:56 am 02:56 Partly Cloudy 34 1.1 30 -1.1 85 85 W 15 24 29.69 1005 10 16 0.00 0.00
3:56 am 03:56 Cloudy 34 1.1 29 -1.7 82 82 W 17 28 29.66 1005 10 16 0.00 0.00
4:56 am 04:56 Cloudy 34 1.1 31 -0.6 89 89 W 17 28 29.65 1004 10 16 0.00 0.00
5:20 am 05:20 Cloudy with Light Snow 34 1 30 -1 87 87 W 17 28 29.68 1005 9 14 0.00 0.00
5:27 am 05:27 Cloudy with Light Wintry Mix 34 1 28 -2 81 81 W 16 26 29.68 1005 9 14 0.00 0.00
5:56 am 05:56 Cloudy with Light Snow 33 0.6 29 -1.7 85 85 W 15 24 29.66 1004 10 16 0.00 0.00
6:56 am 06:56 Cloudy 33 0.6 29 -1.7 85 85 W 18 30 29.66 1004 10 16 0.00 0.00
7:53 am 07:53 Cloudy with Light Snow 32 0 32 0 100 100 WNW 12 19 29.71 1006 2 3 0.00 0.00
7:56 am 07:56 Cloudy with Light Snow 32 0 32 0 100 100 WNW 13 20 29.69 1005 3 4 0.00 0.00
8:04 am 08:04 Cloudy with Light Snow 32 0 32 0 100 100 W 13 20 29.71 1006 6 10 0.00 0.00
8:11 am 08:11 Cloudy with Light Snow 32 0 30 -1 93 93 WNW 17 28 29.71 1006 9 14 0.00 0.00
8:56 am 08:56 Cloudy with Light Rain 33 0.6 30 -1.1 89 89 WNW 13 20 29.70 1006 10 16 0.00 0.00
9:56 am 09:56 Cloudy with Light Snow 34 1.1 33 0.6 97 97 W 18 30 29.71 1006 9 14 0.00 0.00
10:56 am 10:56 Cloudy with Light Rain 35 1.7 30 -1.1 82 82 W 17 28 29.73 1007 10 16 0.00 0.00
11:39 am 11:39 Cloudy 36 2 28 -2 75 75 WNW 15 24 29.76 1008 9 14 0.00 0.00
11:52 am 11:52 Cloudy with Light Rain 34 1 27 -3 75 75 WNW 23 37 29.77 1008 10 16 0.00 0.00
11:56 am 11:56 Cloudy with Light Rain 35 1.7 28 -2.2 76 76 WNW 20 31 29.76 1008 10 16 0.00 0.00
12:33 pm 12:33 Cloudy 36 2 27 -3 70 70 WNW 18 30 29.78 1009 10 16 0.00 0.00
12:44 pm 12:44 Cloudy 36 2 27 -3 70 70 WNW 22 35 29.78 1009 10 16 0.00 0.00
12:51 pm 12:51 Cloudy 36 2 27 -3 70 70 WNW 22 35 29.78 1009 10 16 0.00 0.00
12:56 pm 12:56 Cloudy 35 1.7 26 -3.3 70 70 W 21 33 29.78 1008 10 16 0.00 0.00
1:05 pm 13:05 Cloudy 36 2 27 -3 70 70 WNW 21 33 29.79 1009 10 16 0.00 0.00
1:14 pm 13:14 Cloudy 36 2 27 -3 70 70 WNW 20 31 29.79 1009 10 16 0.00 0.00
1:29 pm 13:29 Cloudy with Light Rain 34 1 28 -2 81 81 W 17 28 29.81 1009 10 16 0.00 0.00
1:56 pm 13:56 Cloudy with Light Snow 35 1.7 27 -2.8 72 72 WNW 17 28 29.79 1009 9 14 0.00 0.00
2:56 pm 14:56 Cloudy with Light Snow 34 1.1 28 -2.2 79 79 WNW 17 28 29.81 1010 9 14 0.00 0.00
3:56 pm 15:56 Cloudy with Light Snow 34 1.1 29 -1.7 82 82 W 15 24 29.83 1010 9 14 0.00 0.00
4:56 pm 16:56 Cloudy with Light Snow 33 0.6 29 -1.7 85 85 WNW 17 28 29.85 1011 9 14 0.00 0.00
5:56 pm 17:56 Cloudy with Light Snow 32 0 32 0 100 100 W 16 26 29.89 1012 6 10 0.00 0.00
6:56 pm 18:56 Cloudy with Light Snow 31 -0.6 29 -1.7 92 92 WNW 15 24 29.91 1013 9 14 0.00 0.00
7:56 pm 19:56 Cloudy with Light Snow 31 -0.6 29 -1.7 92 92 WNW 17 28 29.93 1013 9 14 0.00 0.00
8:56 pm 20:56 Cloudy with Light Snow 30 -1.1 26 -3.3 85 85 WNW 15 24 29.94 1014 9 14 0.00 0.00
9:56 pm 21:56 Cloudy with Light Snow 30 -1.1 26 -3.3 85 85 WNW 18 30 29.97 1015 10 16 0.00 0.00
10:56 pm 22:56 Cloudy with Light Snow 29 -1.7 25 -3.9 85 85 WNW 15 24 29.98 1015 9 14 0.00 0.00
11:56 pm 23:56 Cloudy 29 -1.7 23 -5 78 78 WNW 18 30 29.98 1015 9 14 0.00 0.00

Powered by AerisWeather